EN

Hourly Weather Alvorada

Today, 25 January, Monday

Time Temperature Precipitation Wind Pressure Humidity
00:00 +24°C° 0 mm 0 mps 732 mmHg 76%
01:00 +23°C° 0.3 mm 0 mps 731 mmHg 80%
02:00 +23°C° 0.3 mm 0 mps 731 mmHg 84%
03:00 +24°C° 0.3 mm 1 mps 730 mmHg 88%
04:00 +24°C° 0 mm 1 mps 731 mmHg 90%
05:00 +23°C° 0 mm 1 mps 731 mmHg 90%
06:00 +23°C° 0 mm 1 mps 731 mmHg 90%
07:00 +25°C° 0 mm 1 mps 732 mmHg 84%
08:00 +26°C° 0 mm 2 mps 733 mmHg 78%
09:00 +28°C° 0 mm 2 mps 733 mmHg 72%
10:00 +30°C° 0 mm 2 mps 733 mmHg 63%
11:00 +32°C° 0 mm 2 mps 733 mmHg 54%
12:00 +35°C° 0 mm 2 mps 733 mmHg 45%
13:00 +35°C° 0 mm 2 mps 732 mmHg 45%
14:00 +35°C° 0 mm 2 mps 731 mmHg 45%
15:00 +34°C° 0 mm 1 mps 731 mmHg 46%
16:00 +33°C° 0 mm 1 mps 730 mmHg 50%
17:00 +33°C° 0 mm 1 mps 730 mmHg 55%
18:00 +32°C° 0 mm 1 mps 730 mmHg 59%
19:00 +30°C° 0.6 mm 1 mps 730 mmHg 66%
20:00 +28°C° 0.6 mm 1 mps 731 mmHg 73%
21:00 +26°C° 0.6 mm 1 mps 731 mmHg 80%
22:00 +26°C° 0.8 mm 1 mps 731 mmHg 83%
23:00 +25°C° 0.8 mm 1 mps 731 mmHg 86%

Tomorrow, 26 January, Tuesday

Time Temperature Precipitation Wind Pressure Humidity
00:00 +25°C° 0.8 mm 1 mps 732 mmHg 89%
01:00 +24°C° 0.6 mm 1 mps 731 mmHg 91%
02:00 +24°C° 0.6 mm 2 mps 731 mmHg 93%
03:00 +23°C° 0.6 mm 2 mps 731 mmHg 94%
04:00 +23°C° 0.2 mm 2 mps 731 mmHg 91%
05:00 +24°C° 0.2 mm 1 mps 731 mmHg 88%
06:00 +24°C° 0.2 mm 1 mps 732 mmHg 85%
07:00 +25°C° 0 mm 1 mps 732 mmHg 83%
08:00 +26°C° 0 mm 1 mps 733 mmHg 81%
09:00 +27°C° 0 mm 2 mps 733 mmHg 79%
10:00 +28°C° 0 mm 2 mps 733 mmHg 73%
11:00 +30°C° 0 mm 2 mps 733 mmHg 66%
12:00 +31°C° 0 mm 2 mps 733 mmHg 60%
13:00 +32°C° 0 mm 2 mps 732 mmHg 56%
14:00 +34°C° 0 mm 2 mps 731 mmHg 52%
15:00 +34°C° 0 mm 1 mps 731 mmHg 48%
16:00 +33°C° 0 mm 1 mps 730 mmHg 53%
17:00 +32°C° 0 mm 1 mps 730 mmHg 59%
18:00 +31°C° 0 mm 1 mps 730 mmHg 64%
19:00 +30°C° 0.3 mm 1 mps 730 mmHg 68%
20:00 +29°C° 0.3 mm 1 mps 731 mmHg 71%
21:00 +27°C° 0.3 mm 1 mps 731 mmHg 74%
22:00 +27°C° 0.3 mm 1 mps 731 mmHg 78%
23:00 +26°C° 0.3 mm 1 mps 731 mmHg 81%

Day after tomorrow, 27 January, Wednesday

Time Temperature Precipitation Wind Pressure Humidity
00:00 +25°C° 0.3 mm 1 mps 732 mmHg 85%
01:00 +25°C° 1.2 mm 1 mps 731 mmHg 87%
02:00 +25°C° 1.2 mm 1 mps 731 mmHg 90%
03:00 +22°C° 1.2 mm 0 mps 731 mmHg 92%
04:00 +24°C° 0.4 mm 1 mps 731 mmHg 92%
05:00 +24°C° 0.4 mm 1 mps 731 mmHg 93%
06:00 +24°C° 0.4 mm 1 mps 731 mmHg 93%
07:00 +26°C° 0.5 mm 1 mps 732 mmHg 88%
08:00 +27°C° 0.5 mm 1 mps 733 mmHg 84%
09:00 +29°C° 0.5 mm 1 mps 733 mmHg 80%
10:00 +31°C° 0.4 mm 1 mps 733 mmHg 70%
11:00 +32°C° 0.4 mm 2 mps 733 mmHg 60%
12:00 +35°C° 0.4 mm 2 mps 733 mmHg 50%
13:00 +35°C° 0 mm 2 mps 732 mmHg 49%
14:00 +35°C° 0 mm 1 mps 732 mmHg 47%
15:00 +35°C° 0 mm 1 mps 731 mmHg 46%
16:00 +34°C° 0 mm 1 mps 731 mmHg 52%
17:00 +33°C° 0 mm 1 mps 730 mmHg 57%
18:00 +32°C° 0 mm 1 mps 730 mmHg 63%
19:00 +30°C° 0 mm 1 mps 730 mmHg 66%
20:00 +29°C° 0 mm 1 mps 730 mmHg 70%
21:00 +28°C° 0 mm 1 mps 731 mmHg 74%
22:00 +27°C° 0.1 mm 1 mps 731 mmHg 75%
23:00 +25°C° 0.1 mm 0 mps 731 mmHg 76%

28 January, Thursday

Time Temperature Precipitation Wind Pressure Humidity
00:00 +24°C° 0.1 mm 0 mps 731 mmHg 77%
01:00 +24°C° 0.1 mm 0 mps 731 mmHg 80%
02:00 +25°C° 0.1 mm 1 mps 731 mmHg 83%
03:00 +25°C° 0.1 mm 1 mps 730 mmHg 85%
04:00 +25°C° 0 mm 1 mps 731 mmHg 87%
05:00 +24°C° 0 mm 1 mps 731 mmHg 88%
06:00 +24°C° 0 mm 1 mps 731 mmHg 89%
07:00 +26°C° 0 mm 1 mps 731 mmHg 82%
08:00 +28°C° 0 mm 1 mps 732 mmHg 74%
09:00 +31°C° 0 mm 1 mps 732 mmHg 67%
10:00 +32°C° 0.8 mm 1 mps 732 mmHg 61%
11:00 +33°C° 0.8 mm 1 mps 732 mmHg 56%
12:00 +34°C° 0.8 mm 1 mps 732 mmHg 51%
13:00 +35°C° 0.1 mm 1 mps 731 mmHg 48%
14:00 +36°C° 0.1 mm 1 mps 731 mmHg 45%
15:00 +36°C° 0.1 mm 1 mps 730 mmHg 42%

29 January, Friday

Time Temperature Precipitation Wind Pressure Humidity

30 January, Saturday

Time Temperature Precipitation Wind Pressure Humidity
Show more